Location: Bacharowice
(49.9333°N, 19.5833°E)
Time: 09:01:04
(UTC+00:00)

Cosmos 494 Rocket - Pass Details

Date: 11 May 2021
Orbit: 743 x 770 km, 74.1° (Epoch: 21 June)

Event Time Altitude Azimuth Distance (km) Brightness Sun altitude
Rises 23:12:02 0° 331° (NNW) 3,230 8.1 -21.5°
Reaches altitude 10° 23:14:31 10° 325° (NW) 2,295 7.1 -21.5°
Maximum altitude 23:19:23 42° 256° (WSW) 1,074 4.5 -21.3°
Enters shadow 23:20:07 39° 234° (SW) 1,115 4.5 -21.3°
